QZS-2 (MICHIBIKI-2) (42738 NORAD) Tracking and Keplerian Element Data

This shows tracking and keplerian element data for the satellite.

Feedback or suggestion? Click here.




ElementValue
Catalog42738
NameQZS-2 (MICHIBIKI-2)
Epoch Orbit843
Epoch Day261.37189161
Epoch Year2019
RAAN278.2292
Inclination43.4498
Eccentricity0.0751441
Argument of Perigee270.1423
Mean Anonmoly82.2318
Mean Motion1.00265991
Decay Rate-1.51E-06
L11 42738U 17028A 19261.37189161 -.00000151 00000-0 00000+0 0 9994
L22 42738 43.4498 278.2292 0751441 270.1423 82.2318 1.00265991 8433

Live tracking and technical data element details for QZS-2 (MICHIBIKI-2) (NORAD 42738). QZS-2 (MICHIBIKI-2) can be tracked NOW for your location showing map with azimuth and elevation plus other details from your city location.

Track the satellite on the map from your city or location and see movement details for azimuth, elevation, latitude, longitude, range, height, and movement on the map or in text.







IsCatalogInMostPopularTable: catalog: 42738, numindb: 339
Update: records affected: 1



GetName: 42738 QZS-2 (MICHIBIKI-2)

Hit Count: updated at: Thu, 19 Sep 2019 17:48:19 GMT